Theta_e
350 352 354 356 357 357 357 359 359 358 358 356 353 350 348 346 343 341 338 337 337 338 338 339 338 338 338 337 338 338 338 338 338 338 338 337 337 337 337 337 337 338 337 337 337 336 337 337 338 339 339 339 339 338 339 340 341 340 342 346 347 348 348
348 350 353 355 357 357 358 358 358 358 356 354 351 349 348 347 344 341 339 337 337 337 338 338 338 338 338 338 338 338 339 338 338 338 338 338 338 338 338 338 337 337 337 337 337 337 337 337 337 338 338 338 338 338 338 338 339 340 340 344 347 347 348
347 348 351 354 356 357 357 358 358 357 355 355 353 349 347 346 343 340 339 337 337 337 337 337 338 338 338 338 339 339 339 339 339 339 339 339 339 339 339 339 338 338 337 337 337 337 338 338 338 338 338 338 337 336 336 335 336 338 339 341 344 347 348
346 348 350 352 354 356 357 358 358 358 356 354 352 347 345 344 343 342 340 337 336 336 336 337 337 337 338 338 339 339 339 340 340 341 342 342 342 341 341 340 339 338 338 337 337 337 337 338 338 338 338 338 337 337 335 334 335 336 338 339 342 345 346
347 348 350 352 354 356 357 357 357 357 356 354 351 346 344 344 343 343 342 339 336 335 334 336 336 337 337 338 338 339 339 340 342 344 344 345 345 345 343 342 341 340 339 338 337 336 336 337 337 338 338 338 337 337 336 334 334 334 335 338 340 342 347
345 348 349 351 353 354 356 356 356 356 355 355 354 351 348 348 346 344 343 341 339 337 335 335 336 337 336 337 338 339 340 341 342 344 345 346 346 346 345 344 343 343 342 341 338 336 336 336 337 337 337 337 337 337 336 334 334 334 335 338 339 341 347
342 348 350 350 351 353 354 355 356 356 355 355 356 355 354 353 350 348 347 344 341 339 338 336 335 335 335 336 337 338 339 340 342 343 344 345 346 346 346 345 345 344 344 344 342 340 338 336 335 336 336 336 335 335 335 334 333 334 335 337 339 339 342
340 347 349 349 349 350 353 355 355 355 356 355 355 356 356 354 353 352 350 348 344 342 340 338 336 335 335 336 336 337 338 339 341 343 343 344 345 345 345 345 345 344 345 345 344 343 341 339 336 335 335 335 335 334 334 334 333 335 336 336 339 339 338
339 348 351 349 348 349 351 354 355 355 355 355 354 355 355 355 354 353 351 350 349 346 342 341 339 337 336 336 336 337 338 339 340 341 342 343 344 344 344 344 344 344 344 345 345 345 344 342 340 337 335 334 334 334 333 334 334 334 337 337 337 339 338
341 348 351 349 347 348 349 350 353 353 353 355 354 353 354 355 355 354 352 351 351 348 345 343 342 341 339 339 338 338 338 339 339 340 341 342 342 342 342 343 344 344 344 344 345 345 345 344 344 342 339 337 335 334 333 333 334 334 336 338 338 338 339
346 348 349 348 346 346 345 347 350 350 350 352 353 353 352 352 354 355 353 352 350 348 348 347 346 344 342 341 340 340 340 339 339 339 340 340 340 341 341 342 343 343 343 343 344 345 345 344 345 345 344 342 339 336 334 333 334 334 335 337 338 338 338
345 345 346 347 347 346 345 346 346 346 346 347 350 353 352 350 351 353 353 352 351 351 352 350 349 347 344 342 342 342 342 342 341 341 341 341 340 341 341 341 342 342 343 343 343 344 344 345 345 345 345 345 343 340 337 335 334 333 334 336 337 338 339
342 341 341 343 346 347 344 344 343 342 343 344 347 351 352 349 349 351 353 353 352 353 353 351 349 348 346 344 343 343 342 342 342 342 342 341 341 341 341 341 342 342 342 342 342 343 344 344 345 345 345 345 345 344 342 340 338 335 333 334 335 337 338
343 341 339 336 336 338 338 338 338 339 340 342 345 350 352 351 349 348 351 352 351 353 354 352 350 348 346 345 345 344 342 342 342 342 342 342 342 342 342 341 342 342 342 342 343 343 343 344 344 345 345 345 345 346 345 344 343 340 337 335 334 335 337
341 341 343 339 333 330 331 332 334 336 337 339 343 346 349 351 351 348 347 348 349 351 353 352 350 348 346 345 344 344 342 342 342 342 342 342 342 342 342 342 342 342 342 342 343 343 343 344 344 344 345 345 345 346 346 346 345 344 341 338 335 334 335
335 334 340 344 338 330 328 330 330 332 335 338 339 341 344 346 348 347 346 347 348 349 351 352 350 348 346 345 344 343 343 343 342 342 342 342 342 342 342 342 342 342 343 342 343 343 343 343 344 344 345 345 345 346 346 346 346 345 343 340 338 335 334
332 330 331 341 343 335 329 329 328 329 331 333 335 337 340 342 343 344 346 347 346 346 348 351 351 348 346 345 344 344 344 343 343 343 343 342 342 343 342 342 342 343 343 343 343 343 343 343 344 344 345 345 345 346 346 346 347 346 345 344 342 340 338
332 332 330 337 341 334 329 328 327 328 328 328 331 334 336 339 340 342 343 344 345 345 347 350 350 348 345 345 345 344 343 343 343 343 343 343 342 342 342 342 342 343 343 343 343 343 343 344 344 344 345 345 346 346 346 346 346 347 347 347 346 345 343
330 329 330 336 336 329 327 329 328 327 328 328 329 331 334 337 339 340 340 343 347 348 347 348 348 348 347 346 346 345 343 343 343 343 343 343 342 343 343 342 343 343 343 343 343 344 344 344 344 344 344 345 346 345 346 346 347 347 347 348 348 347 347
332 331 333 335 334 329 327 328 327 326 328 329 329 334 339 338 336 337 339 340 344 346 345 345 347 347 347 347 346 345 344 343 343 342 343 343 342 343 343 343 343 343 344 344 344 344 344 344 344 345 345 345 346 346 346 346 346 347 347 348 348 348 348
334 338 341 337 330 328 328 327 328 329 329 330 331 334 338 338 338 340 341 340 341 342 342 343 345 345 345 344 344 343 344 343 343 343 343 343 343 343 343 343 343 343 344 345 345 345 345 345 344 345 345 345 346 346 346 347 347 347 348 348 348 349 349
335 341 345 340 332 329 329 327 328 328 328 331 333 335 337 339 343 343 341 340 341 341 341 342 342 343 343 342 342 342 342 343 343 343 343 344 344 344 343 343 343 344 344 345 346 346 346 345 345 345 346 346 346 346 346 347 347 347 348 348 348 349 349
337 339 338 334 330 329 328 327 328 328 328 331 335 339 341 344 346 345 342 341 341 341 341 342 341 342 342 341 341 342 342 342 343 343 343 344 344 343 343 343 343 344 344 345 346 346 346 346 346 346 346 346 346 346 346 348 350 349 348 348 349 348 349
334 333 331 329 329 330 329 329 330 329 330 335 338 341 342 345 347 346 342 340 341 341 341 341 341 341 341 342 342 342 342 342 342 343 343 343 343 343 343 343 343 344 345 345 346 346 346 348 348 348 347 347 347 347 347 349 351 351 348 348 349 349 349
335 331 330 330 330 332 333 332 332 333 335 339 340 340 341 345 347 346 342 340 342 344 342 341 341 341 341 342 342 342 342 342 342 343 343 343 343 343 344 344 344 345 346 346 346 347 348 350 351 351 350 348 348 348 349 350 351 355 356 351 348 350 350
339 334 334 336 336 337 337 336 336 338 339 341 342 340 343 347 349 345 341 341 343 344 343 340 341 342 342 342 342 342 342 343 343 342 343 343 343 344 344 345 346 347 348 347 348 350 352 352 354 355 353 352 353 353 353 352 351 356 359 356 351 351 352
339 337 337 339 340 339 340 339 338 340 341 342 341 339 343 350 351 345 342 343 343 344 344 344 342 342 342 342 342 342 342 343 343 343 344 344 344 344 345 345 347 348 350 351 352 354 354 354 356 358 357 357 358 358 358 358 356 356 357 356 354 354 354
343 345 345 345 343 341 343 343 342 344 344 342 341 340 342 348 350 346 341 342 342 342 346 347 344 343 343 343 343 343 343 343 344 344 344 345 345 346 346 347 348 349 350 352 354 355 355 356 358 360 361 361 360 359 359 360 360 359 357 356 356 356 354
351 352 353 352 351 349 350 349 346 345 345 342 341 340 340 343 347 345 343 346 348 348 349 349 346 344 344 343 344 344 345 345 346 345 345 345 345 346 346 347 348 348 349 352 355 357 359 360 361 360 360 361 361 360 359 358 360 360 357 357 358 358 356
352 353 354 354 353 354 355 354 352 347 344 343 342 341 341 345 348 347 347 350 350 348 348 347 345 345 345 345 345 346 346 347 347 347 346 346 347 347 348 349 349 351 354 357 358 360 362 362 361 361 361 361 361 361 361 360 360 360 358 357 358 358 357
352 352 353 354 354 355 356 357 356 353 347 344 343 342 343 346 347 345 346 347 345 344 345 345 345 345 345 346 346 346 346 347 347 347 347 349 350 350 351 352 353 355 359 360 360 361 361 361 361 361 361 361 361 361 361 361 360 361 360 359 359 359 358
351 352 353 354 355 355 356 357 357 356 353 348 346 345 344 344 344 343 343 344 344 344 345 345 346 347 346 347 348 349 350 351 352 353 352 353 356 357 357 358 359 359 361 362 361 361 362 362 362 362 361 361 362 362 362 362 361 361 361 361 361 360 359
351 352 353 353 354 354 355 357 357 356 356 353 351 350 349 348 348 347 347 348 348 348 349 349 349 350 350 352 354 353 353 355 358 359 359 358 360 361 361 361 361 361 362 362 361 362 363 362 362 362 362 362 361 361 362 362 362 362 362 361 361 361 361
351 352 352 352 353 353 354 355 355 354 354 354 354 354 354 354 354 353 353 354 354 356 359 359 358 358 359 359 360 360 358 357 358 359 360 361 361 361 361 361 361 361 362 362 362 362 363 363 363 363 363 362 362 362 362 362 362 363 362 361 361 361 360
350 350 351 351 352 351 351 352 352 351 351 351 350 351 351 351 351 352 352 353 353 354 356 356 358 360 360 360 360 361 361 360 360 359 360 361 361 360 360 359 360 360 360 360 361 362 362 362 362 362 362 362 362 362 363 362 362 363 362 362 361 361 360
348 349 349 350 350 350 350 349 349 349 349 348 348 347 347 347 348 350 351 353 354 353 352 353 356 357 357 358 359 359 360 362 361 361 361 362 362 362 361 360 360 360 360 360 360 359 359 359 359 359 359 360 359 359 360 361 361 361 362 362 361 361 361
347 348 348 348 349 348 348 347 347 347 347 347 347 347 347 347 347 347 348 350 352 352 352 353 353 353 352 352 353 354 355 354 353 353 354 354 353 353 352 351 349 348 348 348 346 345 345 345 346 346 347 347 346 345 346 347 349 352 356 359 361 361 362
346 347 347 347 347 347 346 346 346 346 345 345 345 346 346 347 347 346 346 347 348 349 349 348 347 347 347 346 345 346 347 345 344 342 341 339 339 337 336 338 339 335 332 331 332 331 331 331 331 332 333 334 334 333 333 334 335 337 340 346 351 356 359
Wind_Speed
23 25 27 28 29 31 33 35 37 39 40 42 44 45 44 45 46 47 48 49 49 48 47 47 46 45 45 44 43 42 41 40 40 39 38 37 36 35 34 33 32 31 30 29 28 27 26 26 25 25 24 23 22 21 20 20 19 17 16 15 15 14 13
23 24 27 28 30 32 34 35 37 39 42 43 46 47 46 46 47 48 49 50 49 49 48 48 47 47 46 45 44 43 42 41 41 40 39 39 38 36 35 34 33 32 30 29 29 28 27 27 27 26 25 24 22 21 21 20 19 19 18 16 16 16 15
24 25 27 29 32 33 34 34 36 39 42 43 45 48 48 48 48 48 48 49 50 49 49 49 49 48 47 46 45 44 43 42 42 41 41 40 38 37 36 35 34 32 31 30 30 29 28 28 28 27 27 25 24 23 22 21 20 20 19 18 18 17 17
24 26 27 30 32 32 32 34 36 38 41 44 47 49 49 49 48 47 47 48 49 50 50 51 50 49 49 48 46 45 45 43 42 41 40 39 38 37 36 35 34 33 32 32 31 30 30 29 29 28 28 27 26 25 23 22 22 21 20 20 20 19 19
24 25 26 27 29 30 31 34 38 39 41 43 47 50 50 49 48 47 46 46 47 49 49 50 50 49 49 49 48 47 46 44 43 42 40 39 38 37 36 35 34 32 31 31 31 32 32 31 30 30 29 29 29 28 26 24 23 23 22 22 22 21 19
24 24 25 26 28 30 32 36 38 39 40 40 43 47 48 47 48 48 47 46 46 47 47 48 49 49 49 49 49 48 47 46 44 43 42 41 40 39 38 36 35 33 31 30 31 32 32 32 32 31 31 30 30 30 29 27 25 24 24 23 23 23 19
23 24 26 28 28 30 33 34 35 36 37 37 37 39 41 43 47 48 47 47 47 46 46 46 48 49 49 49 49 49 48 47 45 44 43 42 41 41 40 38 37 35 33 32 31 31 32 33 33 32 32 31 30 30 30 28 27 26 25 25 24 24 22
21 23 26 29 30 29 29 30 32 32 33 33 33 35 37 40 43 44 46 48 48 47 47 46 47 48 49 49 49 49 48 47 46 44 43 43 43 42 41 40 39 37 36 35 33 32 32 32 33 33 33 32 32 31 31 29 28 27 27 27 25 25 25
16 16 18 21 23 23 23 24 26 27 29 32 34 36 36 37 40 43 47 48 47 48 49 48 47 48 48 49 49 49 49 48 47 46 45 44 44 43 42 41 40 39 38 37 35 34 33 33 32 33 33 34 33 32 32 31 29 28 28 28 26 26 26
11 11 12 14 15 17 18 19 21 26 30 33 36 36 36 37 38 41 45 47 48 50 50 50 49 49 48 49 48 48 49 49 48 47 46 46 45 44 43 42 41 40 39 38 37 37 36 34 33 33 34 34 34 34 34 33 31 30 30 30 29 27 27
7 10 11 13 15 16 18 20 23 27 31 34 37 37 38 39 39 39 42 46 49 50 50 49 49 50 50 49 48 48 49 48 48 48 48 47 46 45 44 43 42 42 40 39 39 39 39 36 35 35 35 35 35 35 35 35 34 32 32 31 30 29 29
5 8 10 12 15 17 19 22 24 28 31 34 37 37 38 41 41 39 39 43 46 45 45 47 48 50 51 49 48 48 48 48 48 48 47 47 47 46 45 44 44 43 42 40 39 39 40 39 38 38 37 36 36 36 36 36 36 35 34 33 32 31 31
6 7 9 11 13 14 17 20 24 27 29 32 34 35 36 40 41 39 38 40 41 40 41 46 49 50 51 51 50 49 48 47 46 45 45 45 45 45 45 44 44 44 43 41 40 39 40 40 40 39 38 38 37 36 36 36 36 36 36 35 34 34 33
6 7 8 9 11 12 14 17 21 25 27 30 32 33 34 35 38 40 40 40 40 38 39 44 48 50 51 52 51 51 50 47 45 44 44 43 43 43 43 43 43 43 43 42 40 40 40 40 41 40 39 38 38 37 37 37 37 37 38 37 37 36 36
4 5 7 8 8 8 9 12 16 20 25 27 29 32 34 34 36 40 43 44 44 41 40 43 48 50 51 52 52 52 51 48 47 45 44 45 44 43 43 43 43 42 43 43 42 41 41 41 41 41 41 39 39 38 38 38 39 39 39 39 39 39 38
5 4 4 7 7 6 7 9 12 16 21 25 28 31 34 36 37 40 43 44 45 44 42 42 47 50 51 52 52 51 50 49 47 46 46 47 46 45 44 43 44 44 44 44 43 42 42 42 42 43 42 42 41 40 40 40 40 40 40 40 40 40 40
14 13 12 7 6 9 11 12 13 13 17 21 25 29 33 35 38 39 40 42 45 47 45 43 45 49 51 51 51 51 50 48 47 47 48 48 47 47 46 45 45 45 46 46 45 44 43 43 43 43 44 44 43 42 42 42 42 41 40 40 40 39 40
21 21 20 14 11 14 17 18 17 15 16 17 21 27 31 34 36 38 40 42 44 45 44 42 45 49 50 49 50 50 49 47 47 48 48 48 48 48 47 46 46 47 47 47 46 45 44 44 43 43 44 44 45 44 43 43 43 42 41 41 40 40 39
24 24 22 19 21 25 25 24 22 19 19 19 20 24 28 31 34 37 39 41 41 41 41 43 45 47 48 48 48 48 47 46 46 47 47 48 48 48 47 47 47 48 48 47 46 45 45 44 44 43 43 44 45 45 44 44 44 43 42 42 41 40 39
23 23 22 21 26 29 29 27 23 21 21 21 20 20 24 27 30 33 36 38 40 41 42 43 45 46 46 47 47 46 46 46 46 47 47 47 48 48 47 47 47 47 47 47 47 46 46 46 45 44 44 44 45 46 45 45 45 44 43 43 42 41 39
22 20 20 23 28 30 29 28 23 20 20 21 19 18 21 25 27 30 35 37 39 41 42 42 44 46 46 46 46 45 45 45 46 47 47 48 48 47 46 46 46 46 47 47 47 47 47 46 45 45 45 45 46 46 46 46 46 46 45 43 43 42 40
21 18 18 24 29 31 30 27 23 22 22 22 20 18 20 23 24 28 32 35 37 40 41 41 43 45 46 46 44 43 43 44 45 47 47 47 47 47 46 46 46 46 46 47 47 47 47 46 46 46 46 46 46 46 46 46 46 47 47 45 44 42 41
21 21 23 27 30 31 30 26 24 24 24 22 20 18 19 21 23 26 30 33 36 38 40 40 41 43 44 44 42 41 41 43 44 45 45 46 46 46 45 45 45 45 46 46 46 47 47 47 46 46 46 46 46 46 47 46 44 46 48 47 45 44 43
23 25 27 29 29 28 27 25 24 24 22 20 19 17 17 19 22 26 29 32 34 37 38 39 39 41 42 42 42 41 41 42 42 42 43 44 45 44 43 43 44 44 45 45 45 46 46 46 46 46 46 46 46 45 46 46 43 44 47 48 47 46 45
22 24 26 27 26 25 25 24 22 20 18 18 17 16 16 18 21 25 28 29 31 34 36 37 37 39 40 41 42 41 40 39 39 39 41 42 42 42 42 43 43 44 44 44 44 45 45 44 44 45 45 46 45 45 45 45 41 39 42 46 47 46 46
19 23 24 23 22 22 21 20 18 16 16 18 18 16 16 17 20 23 24 26 29 32 33 34 34 35 37 38 38 38 36 36 36 37 37 38 39 40 41 42 43 43 43 43 43 43 42 42 42 42 43 44 43 42 43 45 43 39 39 43 46 45 44
19 21 20 19 19 18 16 15 15 15 16 18 18 17 16 17 19 20 21 24 28 31 30 30 30 31 32 33 34 35 35 35 36 36 36 37 38 39 40 41 41 41 41 41 40 39 40 39 37 36 37 37 36 35 36 38 40 38 37 40 44 44 44
15 14 14 14 15 13 11 11 12 12 13 15 15 15 16 17 18 19 20 22 26 27 26 26 28 28 29 29 31 33 34 35 36 36 36 37 38 39 40 40 40 40 40 39 38 37 37 34 29 28 29 29 30 32 32 32 34 36 37 40 42 44 45
7 7 6 6 8 7 7 9 11 12 12 13 14 15 16 16 16 16 17 19 22 23 23 24 25 25 25 26 29 31 32 33 34 35 35 35 35 36 37 37 37 38 39 37 33 30 28 27 25 26 27 27 28 31 33 32 31 33 36 40 41 43 45
4 4 3 2 2 2 3 5 9 12 13 13 13 14 14 14 15 17 18 20 21 21 21 22 22 22 22 22 24 27 28 29 30 31 32 31 32 32 33 34 35 34 31 28 26 24 23 24 25 25 25 26 28 29 30 31 31 32 37 41 42 43 44
4 4 3 2 2 2 2 3 5 10 13 14 14 15 16 16 17 18 19 19 18 18 17 17 17 17 18 18 20 21 22 24 25 25 25 26 27 28 28 29 29 27 22 20 22 23 23 23 24 25 25 26 27 28 27 27 29 31 34 38 41 43 44
4 5 5 4 4 4 4 4 7 9 12 14 14 14 15 15 15 16 16 15 15 15 14 13 13 14 14 14 15 16 17 18 18 19 21 21 21 21 19 19 21 21 20 20 21 21 21 21 22 24 25 26 27 27 26 26 27 30 32 35 39 42 44
5 5 5 5 5 5 5 6 7 10 13 16 16 15 15 14 13 13 13 12 12 12 11 11 12 12 12 13 12 13 14 15 15 14 14 15 15 15 14 14 16 18 19 20 20 20 19 20 21 23 24 25 27 27 26 26 27 28 30 34 39 43 44
6 7 7 6 6 5 5 6 7 10 13 16 18 17 16 15 15 14 13 13 12 11 10 10 11 11 11 12 11 11 12 13 14 14 12 11 12 12 13 14 15 16 17 17 18 19 19 20 22 23 24 25 27 27 27 28 29 30 31 36 41 43 43
7 7 7 7 7 7 6 7 8 10 12 15 17 18 18 17 17 15 14 14 14 13 13 14 14 12 12 12 11 11 11 10 10 12 11 10 11 13 16 18 18 18 19 18 18 20 22 23 24 25 26 28 29 31 32 33 34 33 33 37 42 43 44
9 9 9 9 10 10 9 8 9 10 11 12 14 16 16 15 14 12 11 10 11 12 13 14 13 11 11 11 10 10 9 8 7 9 9 10 12 13 14 15 16 17 19 19 20 22 23 25 27 28 30 34 35 36 39 42 43 41 40 42 45 46 47
10 10 11 12 13 13 12 12 12 12 13 12 12 12 13 13 12 11 10 9 9 10 11 11 12 12 12 12 11 11 10 9 9 8 7 7 7 5 4 4 5 7 9 10 12 13 15 18 22 24 27 32 35 36 39 42 45 47 48 49 49 51 54
14 14 15 15 16 16 15 14 14 14 15 14 14 14 13 13 13 12 12 11 11 11 13 15 16 17 16 16 16 16 15 15 15 14 13 12 11 9 9 7 5 3 2 2 3 4 6 10 14 18 21 26 31 34 37 41 44 49 52 54 56 58 62
Wind_Direction
203 203 205 203 203 203 202 201 200 202 203 206 212 215 215 216 217 219 223 224 224 223 222 222 223 224 225 226 226 226 226 227 228 229 231 232 233 234 235 236 237 238 238 238 238 238 239 239 240 242 244 245 245 245 245 247 251 250 242 236 236 235 232
202 204 204 203 204 205 204 202 202 204 207 210 214 217 216 217 218 219 222 224 224 223 223 222 222 223 225 226 227 227 227 227 228 230 231 232 233 234 235 236 237 238 239 239 240 240 240 240 240 241 244 245 245 244 245 247 250 252 249 241 237 238 236
201 204 204 203 205 206 204 202 202 206 209 210 213 217 218 219 220 220 221 223 224 224 224 224 223 223 225 226 227 228 228 228 228 229 230 231 232 233 235 236 236 238 239 239 240 240 241 241 240 240 241 243 244 243 243 245 248 251 252 249 241 237 239
203 203 204 205 206 206 204 202 203 206 210 212 216 220 220 221 222 222 222 223 224 224 224 224 224 224 225 226 227 228 228 227 227 228 229 231 232 233 235 236 236 236 237 238 238 238 240 240 240 239 239 240 242 243 242 243 247 249 251 252 248 240 238
205 205 204 205 206 205 203 204 206 207 210 213 217 222 223 222 223 222 223 223 224 226 225 225 225 226 226 226 226 226 227 226 226 228 229 230 232 233 233 233 234 235 235 236 237 237 237 238 239 239 238 238 240 242 243 242 244 248 249 250 251 246 239
205 204 205 206 206 206 206 207 207 209 211 210 212 219 221 220 222 223 224 224 224 226 227 227 227 227 226 226 225 226 226 226 226 227 229 230 232 233 232 232 233 234 234 235 236 236 236 236 237 238 238 237 238 240 242 241 242 245 247 248 249 248 242
205 200 203 205 207 208 209 209 207 208 212 210 207 211 214 216 220 222 222 224 225 225 226 227 227 227 227 226 226 226 226 226 226 227 228 230 232 233 233 233 233 234 235 235 235 235 235 235 235 236 237 237 237 239 240 240 239 241 244 245 246 248 245
209 202 204 207 210 211 209 208 207 205 208 207 205 206 208 211 216 218 220 223 225 225 226 226 226 227 227 227 226 226 227 227 227 227 228 230 232 234 234 235 235 234 235 236 236 235 235 235 234 235 236 237 237 238 239 238 237 238 241 244 243 245 247
215 207 208 210 213 213 210 208 205 204 205 205 206 206 205 206 209 215 220 221 222 224 226 225 226 227 228 228 228 227 227 228 227 227 228 229 232 233 234 235 235 235 235 236 237 237 237 235 235 235 235 236 237 237 238 238 237 236 238 241 242 242 245
212 204 206 210 210 208 208 206 204 205 206 206 206 206 206 205 205 211 217 218 220 225 227 226 225 227 228 229 229 229 229 229 229 229 229 229 231 232 234 236 237 237 237 236 237 238 239 236 236 237 236 235 236 237 238 238 237 237 237 239 241 242 244
193 200 206 208 206 203 204 204 206 210 212 210 209 208 209 210 206 206 212 217 220 223 224 224 224 226 228 230 229 229 230 230 230 230 230 230 230 231 233 235 237 239 238 237 236 238 239 238 236 237 237 236 236 236 237 238 238 238 237 239 240 241 242
195 211 218 212 206 205 207 207 211 217 219 217 213 209 210 214 213 208 208 213 217 217 218 221 222 224 228 231 230 230 230 230 230 230 230 230 230 231 232 234 236 238 239 238 236 237 239 239 237 237 237 237 238 237 237 239 240 239 238 238 240 241 242
217 218 223 217 208 209 213 215 221 226 226 223 218 212 211 216 218 213 208 210 212 211 212 219 222 224 227 230 231 231 232 231 231 230 230 230 230 230 231 232 234 236 238 237 236 236 237 238 239 238 237 238 239 239 239 239 241 241 239 238 239 240 241
221 215 214 216 214 216 225 230 232 232 232 228 222 216 214 216 219 218 216 214 213 208 208 217 223 225 227 229 230 232 233 233 232 232 232 231 231 230 230 231 232 234 236 237 236 236 236 238 239 240 239 239 239 240 240 240 241 242 241 240 239 239 240
230 210 198 206 215 222 235 247 247 239 236 233 225 220 219 216 217 220 222 222 220 213 208 215 223 226 228 230 231 233 234 234 233 233 233 234 233 232 231 232 233 234 236 237 237 237 238 238 240 241 242 241 240 240 240 241 242 242 241 241 239 239 240
286 273 227 209 224 260 277 278 269 251 241 237 232 227 224 220 220 222 223 223 223 219 212 213 222 226 228 230 232 233 235 235 235 234 234 234 235 235 234 233 234 235 237 238 238 239 239 240 241 242 243 243 242 241 240 241 242 242 242 242 241 241 240
287 292 294 272 246 277 297 299 288 264 247 244 242 236 229 226 227 226 223 222 226 226 219 213 220 227 230 231 232 232 233 235 236 236 236 236 236 236 236 236 236 237 238 239 240 240 241 242 242 243 244 245 244 243 242 241 242 243 243 243 243 243 242
281 285 291 287 276 285 294 294 288 274 261 256 250 244 238 233 230 228 226 224 226 227 221 215 220 228 232 232 232 232 233 234 236 236 237 237 238 238 238 238 239 240 240 241 242 243 243 244 244 244 245 246 246 246 244 243 242 243 244 244 244 244 244
273 275 278 277 278 283 285 284 281 277 273 267 257 251 246 239 233 232 232 227 222 222 221 219 222 228 231 232 232 234 235 235 235 237 238 238 239 239 239 240 241 241 242 243 244 244 245 245 246 246 245 246 247 247 247 246 245 243 244 244 244 244 244
267 269 268 268 273 276 276 275 274 273 273 269 262 254 246 241 239 236 234 229 223 223 225 223 224 227 231 233 234 236 237 236 236 237 238 239 239 240 241 242 242 243 244 244 245 246 246 246 246 246 246 246 247 247 247 248 247 245 244 244 245 244 244
266 265 264 267 270 271 270 269 269 269 268 267 267 259 246 242 238 232 231 230 226 226 227 225 224 226 230 234 236 237 238 237 237 237 238 238 239 240 242 243 244 244 244 244 245 247 248 248 247 248 247 247 247 248 248 249 249 248 246 245 245 245 245
266 266 265 266 267 266 265 266 266 267 269 268 268 261 247 237 228 223 227 229 226 226 227 227 226 227 229 233 235 236 237 238 238 238 238 238 239 241 243 244 245 246 245 245 245 247 249 250 250 249 249 249 249 249 249 249 249 248 247 246 246 246 246
261 263 263 263 263 262 263 265 266 269 273 272 265 252 237 226 219 219 225 227 225 224 225 227 228 229 230 232 233 234 235 237 238 238 239 239 241 242 243 245 246 247 247 247 246 246 249 251 251 252 252 252 251 251 251 249 248 248 248 247 247 246 245
253 257 259 260 261 263 264 266 268 271 273 270 259 242 224 216 214 217 223 225 224 223 224 227 228 229 230 232 233 234 235 236 238 239 240 241 242 244 245 247 248 248 249 249 248 248 249 250 251 253 255 255 254 254 252 250 249 250 248 247 247 247 246
248 250 253 257 260 263 266 269 271 270 266 259 250 235 218 211 212 217 224 225 221 219 222 226 228 229 231 232 233 235 236 237 239 240 241 243 244 246 247 248 249 249 250 251 251 251 250 249 250 252 255 257 258 257 254 252 250 250 249 249 249 248 247
244 248 252 257 260 262 263 265 264 258 251 245 238 227 214 206 208 218 225 224 218 217 221 227 229 230 233 234 235 237 238 239 240 241 242 244 246 247 248 249 250 251 251 253 253 251 250 249 249 250 253 256 257 256 256 255 252 248 247 250 251 250 249
251 252 252 252 254 255 253 251 248 242 240 239 231 220 209 202 205 217 223 222 218 217 220 227 230 232 234 236 237 238 239 240 241 242 243 244 245 247 248 249 250 250 251 251 251 250 251 250 249 249 250 252 251 250 251 251 250 248 248 251 252 250 248
257 256 254 251 249 243 232 230 230 226 228 232 225 214 207 200 201 212 218 218 219 218 219 224 230 233 236 237 238 239 239 240 242 243 244 244 245 246 247 248 249 250 251 251 251 251 253 251 248 246 247 247 246 246 246 245 245 247 249 251 251 248 248
252 253 258 256 248 233 213 209 208 205 208 212 209 206 203 198 199 207 209 209 212 212 213 219 227 233 236 237 238 238 238 239 241 243 244 246 247 248 249 250 251 251 251 251 250 250 250 249 247 247 248 247 246 247 247 245 243 245 248 251 249 247 250
240 234 226 234 241 219 194 194 192 192 193 191 191 191 186 182 187 192 193 197 204 208 212 219 227 232 235 237 237 236 236 237 240 244 248 250 250 250 249 250 252 252 249 248 247 246 246 247 248 248 248 249 248 249 249 246 244 245 249 252 251 249 250
223 199 174 163 141 125 136 148 150 162 169 170 172 176 174 175 183 188 191 194 200 206 211 216 221 225 228 231 232 231 232 235 239 245 250 251 250 250 250 250 251 249 245 242 244 245 246 248 248 248 250 252 252 252 251 250 248 248 251 254 253 251 251
194 170 150 135 117 107 115 120 115 124 140 148 155 162 166 170 177 182 184 186 188 193 198 203 206 210 214 217 221 223 224 226 230 236 242 244 244 245 246 245 245 244 241 240 243 246 247 249 249 249 251 253 255 256 256 254 253 252 253 256 255 252 252
169 151 140 132 117 107 112 119 112 110 121 133 141 147 153 158 163 168 171 173 178 181 183 187 190 192 192 194 199 205 208 208 208 213 222 228 227 228 234 237 237 239 239 239 242 244 247 249 250 251 253 256 259 260 259 257 256 254 253 254 255 255 254
157 144 137 126 113 111 114 115 109 105 111 121 128 133 138 140 143 147 148 150 153 154 154 161 166 167 171 173 176 181 187 195 197 194 197 209 213 217 227 233 235 237 238 239 242 244 246 249 252 253 256 258 260 261 260 258 256 255 255 255 256 257 257
147 139 131 117 108 109 110 108 105 99 100 110 118 125 130 130 130 132 132 134 137 137 139 145 146 146 150 155 161 166 165 170 181 180 180 190 198 205 214 219 222 227 231 234 240 244 247 251 254 256 258 260 260 261 262 262 259 258 258 259 260 261 260
140 131 121 113 107 105 103 101 101 97 96 101 111 120 124 124 123 120 116 119 128 133 138 142 140 137 139 139 143 152 149 142 150 161 170 184 193 205 217 220 223 230 236 240 244 248 252 258 261 265 267 267 266 266 266 266 266 265 262 260 261 263 264
134 123 117 114 111 107 104 100 97 95 94 92 95 104 109 111 112 113 108 106 113 122 129 133 130 125 125 125 126 128 128 127 131 135 140 153 164 176 192 198 211 229 238 245 251 256 260 264 266 269 269 269 270 270 268 267 267 266 264 260 259 259 260
126 120 118 117 114 110 108 104 100 97 96 95 94 93 94 95 97 101 105 104 105 114 123 127 128 123 120 120 122 121 118 117 116 113 111 111 111 113 116 117 119 135 172 225 262 277 284 285 284 282 278 274 274 276 276 275 272 269 266 262 258 256 256